Location: Azul
(36.7830°S, 59.8500°W)
Time: 01:20:18
(UTC-03:00)

CUBEBUG 2 - Pass Details

Date: 26 October 2021
Orbit: 584 x 697 km, 97.7° (Epoch: 30 November)

Event Time Altitude Azimuth Distance (km) Brightness Sun altitude
Exits shadow 02:42:03 16° 101° (E) 1,583 ? -33.3°
Maximum altitude 02:42:46 17° 113° (ESE) 1,557 ? -33.2°
Drops below altitude 10° 02:45:35 10° 154° (SSE) 2,000 ? -32.9°
Sets 02:48:26 0° 173° (S) 2,937 ? -32.6°
